| time (UTC) | temp F | wind direction | speed MPH | gust MPH | rain 1hr in | rain 24hr in | rain mn in | humidity % | barometer mb |
| 20260505072608 | 57 | 301 | 4.0 | 4.0 | 0.00 | 0.00 | 0.00 | 51 | 1015.9 |
| 20260505072207 | 57 | 292 | 3.0 | 4.0 | 0.00 | 0.00 | 0.00 | 51 | 1016.0 |
| 20260505071806 | 57 | 297 | 2.0 | 3.0 | 0.00 | 0.00 | 0.00 | 51 | 1016.0 |
| 20260505071405 | 57 | 274 | 1.0 | 3.0 | 0.00 | 0.00 | 0.00 | 51 | 1015.9 |
| 20260505071003 | 57 | 330 | 0.0 | 3.0 | 0.00 | 0.00 | 0.00 | 51 | 1015.9 |
| 20260505070601 | 57 | 322 | 1.0 | 3.0 | 0.00 | 0.00 | 0.00 | 51 | 1016.0 |
| 20260505070200 | 57 | 288 | 2.0 | 3.0 | 0.00 | 0.00 | 0.00 | 51 | 1016.0 |
| 20260505065759 | 57 | 270 | 3.0 | 3.0 | 0.00 | 0.00 | 0.00 | 51 | 1016.1 |
| 20260505065358 | 57 | 301 | 1.0 | 3.0 | 0.00 | 0.00 | 0.00 | 51 | 1015.9 |
| 20260505064956 | 57 | 319 | 1.0 | 3.0 | 0.00 | 0.00 | 0.00 | 51 | 1015.9 |
| 20260505064555 | 57 | 292 | 2.0 | 3.0 | 0.00 | 0.00 | 0.00 | 51 | 1015.9 |
| 20260505064154 | 57 | 307 | 3.0 | 4.0 | 0.00 | 0.00 | 0.00 | 51 | 1016.0 |
| 20260505063753 | 57 | 299 | 1.0 | 5.0 | 0.00 | 0.00 | 0.00 | 50 | 1016.0 |
| 20260505063353 | 57 | 297 | 2.0 | 3.0 | 0.00 | 0.00 | 0.00 | 50 | 1016.0 |
| 20260505062549 | 57 | 352 | 1.0 | 2.0 | 0.00 | 0.00 | 0.00 | 50 | 1015.9 |
| 20260505062147 | 58 | 328 | 0.0 | 2.0 | 0.00 | 0.00 | 0.00 | 50 | 1016.0 |
| 20260505061751 | 58 | 305 | 0.0 | 2.0 | 0.00 | 0.00 | 0.00 | 50 | 1015.9 |
| 20260505060537 | 58 | 283 | 1.0 | 2.0 | 0.00 | 0.00 | 0.00 | 50 | 1015.9 |
| 20260505055735 | 58 | 288 | 2.0 | 3.0 | 0.00 | 0.00 | 0.00 | 50 | 1015.9 |
| 20260505055332 | 58 | 292 | 2.0 | 2.0 | 0.00 | 0.00 | 0.00 | 50 | 1015.9 |
| 20260505054132 | 58 | 265 | 1.0 | 1.0 | 0.00 | 0.00 | 0.00 | 49 | 1016.0 |
| 20260505053731 | 58 | 270 | 1.0 | 2.0 | 0.00 | 0.00 | 0.00 | 49 | 1016.0 |
| 20260505053326 | 58 | 279 | 2.0 | 3.0 | 0.00 | 0.00 | 0.00 | 49 | 1016.1 |
| 20260505052925 | 58 | 267 | 1.0 | 2.0 | 0.00 | 0.00 | 0.00 | 49 | 1015.9 |
| 20260505052524 | 58 | 310 | 1.0 | 2.0 | 0.00 | 0.00 | 0.00 | 49 | 1016.1 |
| 20260505052122 | 58 | 270 | 0.0 | 0.0 | 0.00 | 0.00 | 0.00 | 49 | 1016.0 |
| 20260505051721 | 58 | 303 | 0.0 | 1.0 | 0.00 | 0.00 | 0.00 | 49 | 1016.0 |
| 20260505050517 | 58 | 267 | 1.0 | 2.0 | 0.00 | 0.00 | 0.00 | 48 | 1016.1 |
| 20260505041709 | 59 | 175 | 2.0 | 4.0 | 0.00 | 0.00 | 0.00 | 46 | 1016.1 |
| 20260505040459 | 59 | 119 | 0.0 | 5.0 | 0.00 | 0.00 | 0.00 | 46 | 1016.1 |
| 20260505040058 | 59 | 221 | 3.0 | 6.0 | 0.00 | 0.00 | 0.00 | 46 | 1016.0 |
| 20260505035655 | 59 | 164 | 2.0 | 3.0 | 0.00 | 0.00 | 0.00 | 46 | 1016.0 |
| 20260505034853 | 59 | 115 | 2.0 | 5.0 | 0.00 | 0.00 | 0.00 | 45 | 1016.0 |
| 20260505034452 | 60 | 180 | 2.0 | 5.0 | 0.00 | 0.00 | 0.00 | 45 | 1016.0 |
| 20260505033253 | 60 | 112 | 2.0 | 4.0 | 0.00 | 0.00 | 0.00 | 44 | 1015.9 |
| 20260505032848 | 60 | 218 | 3.0 | 4.0 | 0.00 | 0.00 | 0.00 | 44 | 1015.9 |
| 20260505031241 | 61 | 140 | 1.0 | 2.0 | 0.00 | 0.00 | 0.00 | 42 | 1015.7 |
| 20260505030840 | 62 | 148 | 1.0 | 3.0 | 0.00 | 0.00 | 0.00 | 42 | 1015.6 |
| 20260505030438 | 62 | 135 | 1.0 | 4.0 | 0.00 | 0.00 | 0.00 | 42 | 1015.5 |
| 20260505030051 | 62 | 177 | 2.0 | 5.0 | 0.00 | 0.00 | 0.00 | 42 | 1015.5 |
| 20260505025637 | 62 | 213 | 3.0 | 4.0 | 0.00 | 0.00 | 0.00 | 41 | 1015.4 |
| 20260505025235 | 62 | 191 | 2.0 | 5.0 | 0.00 | 0.00 | 0.00 | 41 | 1015.3 |
| 20260505024834 | 63 | 182 | 3.0 | 3.0 | 0.00 | 0.00 | 0.00 | 41 | 1015.3 |
| 20260505024432 | 63 | 225 | 2.0 | 3.0 | 0.00 | 0.00 | 0.00 | 40 | 1015.3 |
| 20260505024031 | 63 | 213 | 1.0 | 4.0 | 0.00 | 0.00 | 0.00 | 40 | 1015.3 |
| 20260505022024 | 63 | 225 | 3.0 | 5.0 | 0.00 | 0.00 | 0.00 | 38 | 1015.1 |
| 20260505021222 | 64 | 227 | 4.0 | 7.0 | 0.00 | 0.00 | 0.00 | 37 | 1015.2 |
| 20260505020821 | 65 | 85 | 3.0 | 7.0 | 0.00 | 0.00 | 0.00 | 36 | 1015.1 |
| 20260505020017 | 66 | 253 | 2.0 | 6.0 | 0.00 | 0.00 | 0.00 | 36 | 1.0 |
| 20260505020015 | 66 | 253 | 2.0 | 6.0 | 0.00 | 0.00 | 0.00 | 36 | 1015.1 |
| 20260505015612 | 67 | 220 | 3.0 | 8.0 | 0.00 | 0.00 | 0.00 | 36 | 1015.1 |
| 20260505015210 | 67 | 190 | 1.0 | 3.0 | 0.00 | 0.00 | 0.00 | 36 | 1015.1 |
| 20260505014810 | 67 | 274 | 3.0 | 5.0 | 0.00 | 0.00 | 0.00 | 36 | 1015.0 |
| 20260505013607 | 67 | 255 | 3.0 | 4.0 | 0.00 | 0.00 | 0.00 | 36 | 1015.0 |
| 20260505012805 | 67 | 270 | 4.0 | 5.0 | 0.00 | 0.00 | 0.00 | 35 | 1015.2 |
| 20260505011959 | 66 | 165 | 1.0 | 9.0 | 0.00 | 0.00 | 0.00 | 34 | 1015.2 |
| 20260505011158 | 67 | 232 | 7.0 | 9.0 | 0.00 | 0.00 | 0.00 | 33 | 1015.3 |
| 20260505010755 | 67 | 202 | 9.0 | 10.0 | 0.00 | 0.00 | 0.00 | 33 | 1015.3 |
| 20260505005552 | 67 | 233 | 4.0 | 8.0 | 0.00 | 0.00 | 0.00 | 33 | 1015.4 |
| 20260505005153 | 68 | 270 | 6.0 | 8.0 | 0.00 | 0.00 | 0.00 | 33 | 1015.4 |
| 20260505004750 | 68 | 260 | 2.0 | 9.0 | 0.00 | 0.00 | 0.00 | 32 | 1015.2 |
| 20260505003946 | 69 | 235 | 6.0 | 9.0 | 0.00 | 0.00 | 0.00 | 32 | 1015.3 |
| 20260505002745 | 70 | 219 | 5.0 | 9.0 | 0.00 | 0.00 | 0.00 | 31 | 1015.3 |
| 20260505001940 | 71 | 279 | 5.0 | 11.0 | 0.00 | 0.00 | 0.00 | 31 | 1015.3 |
| 20260505001538 | 72 | 288 | 4.0 | 8.0 | 0.00 | 0.00 | 0.00 | 30 | 1015.3 |
| 20260505000747 | 72 | 272 | 3.0 | 11.0 | 0.00 | 0.00 | 0.00 | 31 | 1015.1 |
| 20260505000745 | 72 | 272 | 3.0 | 11.0 | 0.00 | 0.00 | 0.00 | 31 | 1015.1 |
| 20260505000336 | 73 | 244 | 6.0 | 9.0 | 0.00 | 0.00 | 0.00 | 30 | 1015.1 |
| 20260504235134 | 74 | 273 | 2.0 | 17.0 | 0.00 | 0.00 | 0.00 | 30 | 1015.1 |
| 20260504234730 | 75 | 219 | 6.0 | 13.0 | 0.00 | 0.00 | 0.00 | 30 | 1015.2 |
| 20260504234334 | 74 | 274 | 12.0 | 18.0 | 0.00 | 0.00 | 0.00 | 30 | 1015.1 |
| 20260504233526 | 75 | 283 | 15.0 | 15.0 | 0.00 | 0.00 | 0.00 | 30 | 1015.1 |
| 20260504233136 | 74 | 292 | 8.0 | 12.0 | 0.00 | 0.00 | 0.00 | 30 | 1015.2 |
| 20260504232723 | 74 | 230 | 11.0 | 21.0 | 0.00 | 0.00 | 0.00 | 31 | 1015.1 |
| 20260504231921 | 73 | 196 | 7.0 | 12.0 | 0.00 | 0.00 | 0.00 | 30 | 1015.1 |
| 20260504231520 | 72 | 205 | 8.0 | 13.0 | 0.00 | 0.00 | 0.00 | 30 | 1015.1 |
| 20260504231118 | 73 | 173 | 5.0 | 11.0 | 0.00 | 0.00 | 0.00 | 30 | 1015.3 |
| 20260504230716 | 73 | 135 | 3.0 | 9.0 | 0.00 | 0.00 | 0.00 | 29 | 1015.3 |
| 20260504230315 | 73 | 272 | 4.0 | 9.0 | 0.00 | 0.00 | 0.00 | 29 | 1015.3 |
| 20260504225953 | 73 | 295 | 5.0 | 12.0 | 0.00 | 0.00 | 0.00 | 29 | 1015.4 |
| 20260504225914 | 73 | 295 | 5.0 | 12.0 | 0.00 | 0.00 | 0.00 | 29 | 1015.4 |
| 20260504225112 | 74 | 220 | 7.0 | 10.0 | 0.00 | 0.00 | 0.00 | 29 | 1015.4 |
| 20260504224716 | 75 | 274 | 4.0 | 8.0 | 0.00 | 0.00 | 0.00 | 29 | 1015.5 |
| 20260504224313 | 75 | 221 | 6.0 | 11.0 | 0.00 | 0.00 | 0.00 | 29 | 1015.6 |
| 20260504223506 | 74 | 220 | 9.0 | 16.0 | 0.00 | 0.00 | 0.00 | 29 | 1015.6 |
| 20260504223105 | 74 | 255 | 8.0 | 11.0 | 0.00 | 0.00 | 0.00 | 29 | 1015.6 |
| 20260504222704 | 74 | 279 | 8.0 | 23.0 | 0.00 | 0.00 | 0.00 | 30 | 1015.5 |
| 20260504221907 | 73 | 270 | 3.0 | 13.0 | 0.00 | 0.00 | 0.00 | 30 | 1015.7 |
| 20260504221059 | 75 | 200 | 14.0 | 14.0 | 0.00 | 0.00 | 0.00 | 30 | 1015.6 |
| 20260504220704 | 76 | 202 | 7.0 | 10.0 | 0.00 | 0.00 | 0.00 | 29 | 1015.7 |
| 20260504220301 | 76 | 173 | 7.0 | 9.0 | 0.00 | 0.00 | 0.00 | 30 | 1015.7 |
| 20260504215901 | 76 | 190 | 3.0 | 13.0 | 0.00 | 0.00 | 0.00 | 30 | 1015.8 |
| 20260504215458 | 74 | 202 | 9.0 | 15.0 | 0.00 | 0.00 | 0.00 | 30 | 1015.9 |
| 20260504214251 | 72 | 180 | 3.0 | 12.0 | 0.00 | 0.00 | 0.00 | 30 | 1016.0 |
| 20260504213454 | 74 | 121 | 6.0 | 9.0 | 0.00 | 0.00 | 0.00 | 30 | 1016.1 |
| 20260504213051 | 74 | 267 | 6.0 | 13.0 | 0.00 | 0.00 | 0.00 | 30 | 1016.1 |
| 20260504212250 | 73 | 90 | 5.0 | 11.0 | 0.00 | 0.00 | 0.00 | 30 | 1016.1 |
| 20260504211842 | 73 | 103 | 4.0 | 10.0 | 0.00 | 0.00 | 0.00 | 30 | 1016.1 |
| 20260504211441 | 73 | 216 | 8.0 | 11.0 | 0.00 | 0.00 | 0.00 | 31 | 1016.0 |
| 20260504211040 | 73 | 187 | 3.0 | 8.0 | 0.00 | 0.00 | 0.00 | 31 | 1016.2 |
| 20260504210638 | 73 | 202 | 5.0 | 11.0 | 0.00 | 0.00 | 0.00 | 30 | 1016.2 |
| 20260504210237 | 74 | 225 | 7.0 | 9.0 | 0.00 | 0.00 | 0.00 | 31 | 1016.0 |
| 20260504205835 | 74 | 197 | 8.0 | 9.0 | 0.00 | 0.00 | 0.00 | 32 | 1016.0 |
| 20260504205446 | 72 | 199 | 5.0 | 10.0 | 0.00 | 0.00 | 0.00 | 31 | 1016.0 |
| 20260504205037 | 72 | 195 | 8.0 | 8.0 | 0.00 | 0.00 | 0.00 | 32 | 1016.0 |
| 20260504204634 | 71 | 221 | 2.0 | 10.0 | 0.00 | 0.00 | 0.00 | 31 | 1015.9 |
| 20260504204230 | 72 | 152 | 5.0 | 9.0 | 0.00 | 0.00 | 0.00 | 31 | 1016.1 |
| 20260504203829 | 72 | 163 | 5.0 | 6.0 | 0.00 | 0.00 | 0.00 | 31 | 1016.0 |
| 20260504203428 | 72 | 186 | 8.0 | 9.0 | 0.00 | 0.00 | 0.00 | 30 | 1016.1 |
| 20260504202626 | 73 | 264 | 1.0 | 4.0 | 0.00 | 0.00 | 0.00 | 31 | 1016.0 |
| 20260504201822 | 73 | 294 | 4.0 | 8.0 | 0.00 | 0.00 | 0.00 | 31 | 1016.0 |
| 20260504201421 | 73 | 182 | 2.0 | 8.0 | 0.00 | 0.00 | 0.00 | 30 | 1016.1 |
| 20260504200619 | 74 | 270 | 4.0 | 8.0 | 0.00 | 0.00 | 0.00 | 31 | 1016.1 |
| 20260504200219 | 73 | 186 | 5.0 | 5.0 | 0.00 | 0.00 | 0.00 | 30 | 1016.1 |
| 20260504195817 | 73 | 225 | 1.0 | 10.0 | 0.00 | 0.00 | 0.00 | 30 | 1016.1 |
| 20260504195013 | 74 | 265 | 4.0 | 6.0 | 0.00 | 0.00 | 0.00 | 31 | 1016.2 |
| 20260504194613 | 74 | 119 | 5.0 | 6.0 | 0.00 | 0.00 | 0.00 | 31 | 1016.1 |
| 20260504194212 | 76 | 232 | 3.0 | 4.0 | 0.00 | 0.00 | 0.00 | 31 | 1016.1 |
| 20260504193810 | 75 | 99 | 1.0 | 7.0 | 0.00 | 0.00 | 0.00 | 31 | 1016.2 |
| 20260504193409 | 74 | 220 | 7.0 | 7.0 | 0.00 | 0.00 | 0.00 | 31 | 1016.2 |
| 20260504192606 | 73 | 180 | 2.0 | 9.0 | 0.00 | 0.00 | 0.00 | 32 | 1016.3 |
| 20260504191001 | 72 | 128 | 8.0 | 8.0 | 0.00 | 0.00 | 0.00 | 32 | 1016.4 |
| 20260504190600 | 73 | 296 | 2.0 | 4.0 | 0.00 | 0.00 | 0.00 | 32 | 1016.4 |
| 20260504185757 | 74 | 331 | 2.0 | 4.0 | 0.00 | 0.00 | 0.00 | 32 | 1016.3 |
| 20260504185356 | 73 | 135 | 1.0 | 7.0 | 0.00 | 0.00 | 0.00 | 33 | 1016.5 |
| 20260504184955 | 73 | 166 | 5.0 | 5.0 | 0.00 | 0.00 | 0.00 | 33 | 1016.6 |
| 20260504184555 | 73 | 173 | 1.0 | 7.0 | 0.00 | 0.00 | 0.00 | 34 | 1016.6 |
| 20260504184152 | 73 | 135 | 7.0 | 7.0 | 0.00 | 0.00 | 0.00 | 34 | 1016.5 |
| 20260504183751 | 0 | 166 | 2.0 | 6.0 | 0.00 | 0.00 | 0.00 | ||
| 20260504183352 | 72 | 182 | 2.0 | 6.0 | 0.00 | 0.00 | 0.00 | 34 | 1016.6 |
| 20260504182948 | 72 | 192 | 2.0 | 6.0 | 0.00 | 0.00 | 0.00 | 34 | 1016.6 |
| 20260504182547 | 72 | 184 | 6.0 | 7.0 | 0.00 | 0.00 | 0.00 | 34 | 1016.6 |
| 20260504182151 | 72 | 175 | 3.0 | 7.0 | 0.00 | 0.00 | 0.00 | 34 | 1016.7 |
| 20260504181748 | 70 | 197 | 2.0 | 7.0 | 0.00 | 0.00 | 0.00 | 34 | 1016.6 |
| 20260504181347 | 70 | 186 | 4.0 | 9.0 | 0.00 | 0.00 | 0.00 | 34 | 1016.7 |
| 20260504180942 | 71 | 175 | 3.0 | 6.0 | 0.00 | 0.00 | 0.00 | 34 | 1016.7 |
| 20260504180140 | 72 | 191 | 3.0 | 8.0 | 0.00 | 0.00 | 0.00 | 35 | 1016.6 |
| 20260504175738 | 72 | 128 | 8.0 | 8.0 | 0.00 | 0.00 | 0.00 | 35 | 1016.5 |
| 20260504175336 | 72 | 185 | 4.0 | 5.0 | 0.00 | 0.00 | 0.00 | 35 | 1016.5 |
| 20260504174938 | 71 | 92 | 1.0 | 4.0 | 0.00 | 0.00 | 0.00 | 35 | 1016.5 |
| 20260504174534 | 71 | 175 | 2.0 | 4.0 | 0.00 | 0.00 | 0.00 | 35 | 1016.6 |
| 20260504174133 | 71 | 92 | 0.0 | 5.0 | 0.00 | 0.00 | 0.00 | 35 | 1016.5 |
| 20260504173731 | 71 | 177 | 1.0 | 3.0 | 0.00 | 0.00 | 0.00 | 34 | 1016.5 |
| 20260504173330 | 69 | 180 | 1.0 | 2.0 | 0.00 | 0.00 | 0.00 | 34 | 1016.5 |
| 20260504172928 | 69 | 135 | 2.0 | 3.0 | 0.00 | 0.00 | 0.00 | 34 | 1016.5 |
| 20260504172529 | 69 | 177 | 1.0 | 3.0 | 0.00 | 0.00 | 0.00 | 34 | 1016.5 |
| 20260504172126 | 70 | 180 | 1.0 | 2.0 | 0.00 | 0.00 | 0.00 | 33 | 1016.4 |
| 20260504171725 | 70 | 168 | 0.0 | 4.0 | 0.00 | 0.00 | 0.00 | 33 | 1016.5 |
| 20260504171324 | 69 | 347 | 1.0 | 3.0 | 0.00 | 0.00 | 0.00 | 33 | 1016.4 |
| 20260504170923 | 68 | 184 | 1.0 | 2.0 | 0.00 | 0.00 | 0.00 | 33 | 1016.4 |
| 20260504170521 | 68 | 186 | 2.0 | 2.0 | 0.00 | 0.00 | 0.00 | 32 | 1016.4 |
| 20260504150845 | 61 | 279 | 4.0 | 4.0 | 0.00 | 0.00 | 0.00 | 51 | 1016.2 |
| 20260504150443 | 60 | 292 | 4.0 | 6.0 | 0.00 | 0.00 | 0.00 | 1 | 1016.2 |
| 20260504141228 | 56 | 263 | 1.0 | 2.0 | 0.00 | 0.00 | 0.00 | 57 | 1015.9 |
| 20260504140828 | 55 | 225 | 0.0 | 1.0 | 0.00 | 0.00 | 0.00 | 57 | 1016.0 |
| 20260504130805 | 54 | 283 | 0.0 | 0.0 | 0.00 | 0.00 | 0.00 | 55 | 1015.7 |
| 20260504130405 | 54 | 270 | 0.0 | 0.0 | 0.00 | 0.00 | 0.00 | 55 | 1015.7 |
| 20260504110327 | 55 | 274 | 0.0 | 0.0 | 0.00 | 0.00 | 0.00 | 54 | 1015.5 |
| 20260504081835 | 56 | 324 | 0.0 | 0.0 | 0.00 | 0.00 | 0.00 | 53 | 1016.4 |
| 20260504081431 | 56 | 270 | 0.0 | 0.0 | 0.00 | 0.00 | 0.00 | 53 | 1016.6 |
| 20260504081030 | 56 | 283 | 0.0 | 0.0 | 0.00 | 0.00 | 0.00 | 53 | 1016.6 |
| 20260504080629 | 56 | 279 | 0.0 | 1.0 | 0.00 | 0.00 | 0.00 | 53 | 1016.5 |
| 20260504080228 | 56 | 85 | 0.0 | 0.0 | 0.00 | 0.00 | 0.00 | 53 | 1016.3 |